Weather in Mahabaleshwar

India     17°55′34″N   73°39′33″E
temp.,
°C
wind,
m/s
gust,
m/s
humid.,
%
clouds,
%
prec.,
mm/h
press.,
hPa
HPBL,
m
28 october, thu
thu2823:30+18e33621 0.0 101550
02:30+17e33695 0.0 101342
05:30+17e337197 0.0 101440
08:30+20e38645 0.0 1016569
11:30+25ene68455 0.0 10151542
14:30+26ene56398 0.0 10111977
17:30+23ne22585 0.0 101222
20:30+19e335937 0.0 101539
29 october, fri
fri2923:30+18e336571 0.0 101545
02:30+17e347379 0.0 101457
05:30+16e337827 0.0 101550
08:30+19e3567100 0.0 1017386
11:30+24e344694 0.0 10171111
14:30+26e233824 0.0 10131594
17:30+23ese005390 0.0 101311
20:30+20ene225454 0.0 101612
30 october, sat
sat3023:30+18e336148 0.0 101648
02:30+17e347126 0.0 101581
05:30+17e3475100 0.0 101679
08:30+20e35629 0.0 1018269
11:30+25e345292 0.0 1016773
14:30+27e234829 0.0 10131313
17:30+24e11615 0.0 101311
20:30+21e116429 0.0 101611
31 october, sun
sun3123:30+21e226670 0.0 101630
02:30+19e3371100 0.0 101450
05:30+18e337851 0.0 101551
08:30+22e346971 0.0 1016261
11:30+26e225811 0.0 1015995
14:30+27e115982 0.1 10121377
17:30+23wsw127499 0.1 101221
20:30+23wnw1177100 0.0 101415
1 november, mon
mon123:30+22ssw1176100 0.1 101411
02:30+21ene117885 0.1 101212
05:30+19e337979 0.1 101245
08:30+22e237391 0.0 1014366
11:30+27se226048 0.1 10131405
14:30+25sw1166100 0.3 1011513
17:30+23w117599 0.4 101125
20:30+22sw118598 0.2 101326